Location: Highridge
(54.0333°N, 114.1333°W)
Time: 12:44:19
(UTC+00:00)

SO-50 - Visible Passes

Search period start: 05 December 2023 00:00
Search period end: 15 December 2023 00:00
Orbit: 601 x 670 km, 64.6° (Epoch: 04 December)

Date Brightness Start Highest point End Pass type
(mag) Time Alt. Az. Time Alt. Az. Time Alt. Az.
05 Dec ? 11:26:32 20° ENE 11:26:32 20° ENE 11:28:06 10° NE visible
05 Dec ? 13:04:02 42° NNW 13:04:02 42° NNW 13:08:26 10° NE visible
05 Dec ? 14:41:35 10° WNW 14:45:20 23° N 14:49:01 10° NE visible
06 Dec ? 11:48:47 25° NE 11:48:47 25° NE 11:50:45 10° NE visible
06 Dec ? 13:26:16 30° NW 13:26:54 31° NNW 13:31:01 10° NE visible
07 Dec ? 12:10:58 28° NNE 12:10:58 28° NNE 12:13:19 10° NE visible
07 Dec ? 13:48:26 21° NW 13:49:54 25° NNW 13:53:44 10° NE visible
08 Dec ? 12:33:04 29° NNE 12:33:04 29° NNE 12:35:51 10° NE visible
08 Dec ? 14:10:33 15° NW 14:12:58 22° N 14:16:36 10° NE visible
09 Dec ? 11:17:40 13° NE 11:17:40 13° NE 11:18:10 10° NE visible
09 Dec ? 12:55:08 27° N 12:55:08 27° N 12:58:28 10° NE visible
09 Dec ? 14:32:37 11° NW 14:36:03 23° N 14:39:40 10° ENE visible
10 Dec ? 11:39:42 16° NE 11:39:42 16° NE 11:40:42 10° NE visible
10 Dec ? 13:17:10 23° NNW 13:17:29 23° N 13:21:12 10° NE visible
10 Dec ? 14:55:13 10° NW 14:59:05 25° NNE 15:02:54 10° ENE visible
11 Dec ? 12:01:42 19° NNE 12:01:42 19° NNE 12:03:15 10° NE visible
11 Dec ? 13:39:10 19° NNW 13:40:34 22° N 13:44:09 10° NE visible
12 Dec ? 12:23:41 21° NNE 12:23:41 21° NNE 12:25:53 10° NE visible
12 Dec ? 14:01:09 16° NNW 14:03:37 23° N 14:07:17 10° ENE visible
13 Dec ? 12:45:39 22° N 12:45:39 22° N 12:48:41 10° NE visible
13 Dec ? 14:23:07 12° NW 14:26:37 27° NNE 14:30:30 10° ENE visible
14 Dec ? 11:30:08 12° NE 11:30:08 12° NE 11:30:35 10° NE visible
14 Dec ? 13:07:36 22° N 13:08:05 22° N 13:11:41 10° NE visible
14 Dec ? 14:45:14 10° NW 14:49:31 36° NNE 14:53:42 10° E visible
